ANA273 RJGG-RJAA

Flight info

Callsign ANA273
Flight time N/A
Altitude 33000
Route BOGON Y23 ARTIC Y71 XAC Y233 UTIBO Y803 EKIRA BINKS
Aircraft A20N/M-SDE2E3FGHIRWXY/LB1

Departure

Time 2026-05-07 03:37
Airport Chubu Centrair International Airport (RJGG)

Arrival

Time N/A
Airport Narita International Airport (RJAA)
Time Latitude Longitude Altitude Speed Heading
2026-05-07 03:14 34.85895 136.80986 28 ft 0 kts 152°
2026-05-07 03:27 34.85905 136.80980 27 ft 3 kts 152°
2026-05-07 03:27 34.85923 136.80968 27 ft 3 kts 151°
2026-05-07 03:27 34.85940 136.80956 27 ft 3 kts 150°
2026-05-07 03:28 34.85958 136.80944 27 ft 3 kts 146°
2026-05-07 03:28 34.85974 136.80929 28 ft 3 kts 130°
2026-05-07 03:28 34.85983 136.80912 28 ft 2 kts 84°
2026-05-07 03:28 34.85981 136.80899 27 ft 3 kts 71°
2026-05-07 03:29 34.85972 136.80878 27 ft 3 kts 34°
2026-05-07 03:29 34.85955 136.80869 27 ft 3 kts
2026-05-07 03:29 34.85936 136.80870 27 ft 2 kts 349°
2026-05-07 03:29 34.85924 136.80873 27 ft 3 kts 348°
2026-05-07 03:30 34.85904 136.80878 27 ft 3 kts 348°
2026-05-07 03:30 34.85887 136.80882 27 ft 1 kts 348°
2026-05-07 03:30 34.85885 136.80882 27 ft 0 kts 348°
2026-05-07 03:32 34.85889 136.80881 27 ft 3 kts 348°
2026-05-07 03:33 34.85934 136.80870 27 ft 11 kts 349°
2026-05-07 03:33 34.86035 136.80846 28 ft 18 kts 348°
2026-05-07 03:33 34.86183 136.80809 28 ft 24 kts 348°
2026-05-07 03:33 34.86357 136.80771 28 ft 26 kts 350°
2026-05-07 03:34 34.86540 136.80725 28 ft 27 kts 349°
2026-05-07 03:34 34.86729 136.80680 28 ft 28 kts 348°
2026-05-07 03:34 34.86921 136.80633 27 ft 29 kts 349°
2026-05-07 03:34 34.87120 136.80586 27 ft 26 kts 349°
2026-05-07 03:35 34.87288 136.80546 27 ft 21 kts 346°
2026-05-07 03:35 34.87322 136.80407 27 ft 16 kts 259°
2026-05-07 03:35 34.87301 136.80271 27 ft 17 kts 258°
2026-05-07 03:35 34.87238 136.80202 27 ft 3 kts 170°
2026-05-07 03:36 34.87136 136.80226 27 ft 42 kts 168°
2026-05-07 03:36 34.86620 136.80351 26 ft 106 kts 169°
2026-05-07 03:36 34.85729 136.80565 26 ft 153 kts 168°
2026-05-07 03:36 34.84659 136.80822 486 ft 155 kts 171°
2026-05-07 03:37 34.83579 136.81078 1030 ft 161 kts 169°
2026-05-07 03:37 34.82468 136.81338 1582 ft 163 kts 169°
2026-05-07 03:37 34.81348 136.81601 2139 ft 165 kts 169°
2026-05-07 03:37 34.80283 136.82107 2669 ft 166 kts 150°
2026-05-07 03:38 34.79300 136.82828 3164 ft 168 kts 149°
2026-05-07 03:38 34.78301 136.83582 3648 ft 169 kts 149°
2026-05-07 03:38 34.77286 136.84362 4020 ft 180 kts 149°
2026-05-07 03:38 34.76128 136.85256 4357 ft 209 kts 149°
2026-05-07 03:39 34.74815 136.86264 4768 ft 239 kts 149°
2026-05-07 03:39 34.73342 136.87389 5459 ft 261 kts 150°
2026-05-07 03:39 34.71758 136.88593 6296 ft 272 kts 150°
2026-05-07 03:39 34.70136 136.89821 7220 ft 277 kts 150°
2026-05-07 03:40 34.68553 136.91202 8164 ft 286 kts 136°
2026-05-07 03:40 34.67489 136.93280 9062 ft 298 kts 111°
2026-05-07 03:40 34.67059 136.95783 9933 ft 304 kts 100°
2026-05-07 03:40 34.66798 136.98366 10324 ft 319 kts 98°
2026-05-07 03:41 34.66543 137.01139 10571 ft 342 kts 98°
2026-05-07 03:41 34.66250 137.04089 10894 ft 360 kts 99°
2026-05-07 03:41 34.65923 137.07126 11594 ft 365 kts 99°
2026-05-07 03:41 34.65577 137.10197 12344 ft 369 kts 100°
2026-05-07 03:42 34.65218 137.13305 13059 ft 373 kts 100°
2026-05-07 03:42 34.64849 137.16445 13773 ft 378 kts 100°
2026-05-07 03:42 34.64475 137.19620 14424 ft 381 kts 100°
2026-05-07 03:42 34.64098 137.22815 15084 ft 384 kts 100°
2026-05-07 03:43 34.63715 137.26046 15724 ft 388 kts 100°
2026-05-07 03:43 34.63329 137.29297 16363 ft 391 kts 99°
2026-05-07 03:43 34.62939 137.32575 16963 ft 394 kts 99°
2026-05-07 03:43 34.62481 137.35860 17541 ft 396 kts 105°
2026-05-07 03:44 34.61690 137.39026 18108 ft 398 kts 113°
2026-05-07 03:44 34.60585 137.42119 18607 ft 401 kts 116°
2026-05-07 03:44 34.59448 137.45225 19098 ft 404 kts 116°
2026-05-07 03:44 34.58311 137.48358 19566 ft 407 kts 116°
2026-05-07 03:45 34.57166 137.51516 20054 ft 411 kts 116°
2026-05-07 03:45 34.56011 137.54702 20528 ft 414 kts 116°
2026-05-07 03:45 34.54987 137.57982 20992 ft 420 kts 108°
2026-05-07 03:45 34.54389 137.61468 21440 ft 426 kts 98°
2026-05-07 03:46 34.54248 137.65042 21885 ft 431 kts 91°
2026-05-07 03:46 34.54277 137.68740 22326 ft 435 kts 91°
2026-05-07 03:46 34.54294 137.72434 22769 ft 439 kts 91°
2026-05-07 03:46 34.54306 137.76148 23218 ft 443 kts 91°
2026-05-07 03:47 34.54314 137.79858 23624 ft 447 kts 92°
2026-05-07 03:47 34.54320 137.83644 24013 ft 449 kts 92°
2026-05-07 03:47 34.54326 137.87441 24429 ft 451 kts 92°
2026-05-07 03:47 34.54330 137.91261 24816 ft 454 kts 92°
2026-05-07 03:48 34.54333 137.95096 25213 ft 456 kts 92°
2026-05-07 03:48 34.54335 137.98945 25605 ft 458 kts 92°
2026-05-07 03:48 34.54336 138.02819 25993 ft 460 kts 92°
2026-05-07 03:48 34.54334 138.06713 26390 ft 462 kts 92°
2026-05-07 03:49 34.54327 138.10632 26780 ft 464 kts 92°
2026-05-07 03:49 34.54318 138.14554 27127 ft 466 kts 92°
2026-05-07 03:49 34.54308 138.18499 27460 ft 469 kts 92°
2026-05-07 03:49 34.54297 138.22460 27788 ft 472 kts 92°
2026-05-07 03:50 34.54284 138.26455 28108 ft 475 kts 92°
2026-05-07 03:50 34.54270 138.30473 28442 ft 478 kts 92°
2026-05-07 03:50 34.54320 138.34515 28799 ft 482 kts 87°
2026-05-07 03:50 34.54846 138.38550 29190 ft 487 kts 77°
2026-05-07 03:51 34.55900 138.42413 29525 ft 490 kts 67°
2026-05-07 03:51 34.57399 138.46128 29868 ft 492 kts 63°
2026-05-07 03:51 34.58949 138.49843 30162 ft 494 kts 63°
2026-05-07 03:51 34.60497 138.53574 30403 ft 497 kts 63°
2026-05-07 03:52 34.62051 138.57330 30643 ft 499 kts 63°
2026-05-07 03:52 34.63612 138.61112 30883 ft 502 kts 63°
2026-05-07 03:52 34.65175 138.64904 31146 ft 504 kts 63°
2026-05-07 03:52 34.66736 138.68696 31696 ft 496 kts 64°
2026-05-07 03:53 34.68254 138.72385 32105 ft 481 kts 64°
2026-05-07 03:53 34.69721 138.75953 32218 ft 461 kts 64°
2026-05-07 03:53 34.71124 138.79372 32319 ft 442 kts 64°
2026-05-07 03:53 34.72405 138.82682 32419 ft 424 kts 72°
2026-05-07 03:54 34.73021 138.86146 32526 ft 419 kts 90°
2026-05-07 03:54 34.72812 138.89649 32644 ft 414 kts 108°
2026-05-07 03:54 34.71813 138.92893 32766 ft 407 kts 126°
2026-05-07 03:54 34.70132 138.95594 32874 ft 397 kts 143°
2026-05-07 03:55 34.67936 138.97534 32982 ft 386 kts 161°
2026-05-07 03:55 34.65428 138.98579 33014 ft 378 kts 178°
2026-05-07 03:55 34.62834 138.98683 33018 ft 370 kts 191°
2026-05-07 03:56 34.57800 138.97729 33014 ft 364 kts 195°
2026-05-07 03:56 34.53096 138.95800 33018 ft 354 kts 217°
2026-05-07 03:57 34.49583 138.91773 33014 ft 350 kts 232°
2026-05-07 03:57 34.46722 138.86959 33014 ft 349 kts 236°
2026-05-07 03:58 34.44205 138.81976 33020 ft 350 kts 246°
2026-05-07 03:58 34.43173 138.76204 33018 ft 357 kts 267°
2026-05-07 03:58 34.43421 138.73195 33014 ft 363 kts 278°
2026-05-07 03:59 34.44212 138.70263 33018 ft 371 kts 290°
2026-05-07 03:59 34.45540 138.67551 33017 ft 379 kts 302°
2026-05-07 03:59 34.47377 138.65210 33018 ft 389 kts 315°
2026-05-07 03:59 34.49662 138.63392 33017 ft 399 kts 328°
2026-05-07 04:00 34.52296 138.62245 33017 ft 408 kts 342°
2026-05-07 04:00 34.55145 138.61886 33017 ft 417 kts 357°
2026-05-07 04:00 34.58045 138.62394 33016 ft 426 kts 12°
2026-05-07 04:00 34.60797 138.63789 33019 ft 433 kts 28°
2026-05-07 04:01 34.63201 138.66019 33017 ft 438 kts 45°
2026-05-07 04:01 34.66812 138.71986 33015 ft 439 kts 56°
2026-05-07 04:02 34.70238 138.78122 33011 ft 438 kts 56°
2026-05-07 04:02 34.73130 138.84555 33010 ft 437 kts 77°
2026-05-07 04:02 34.73562 138.88184 33020 ft 433 kts 94°
2026-05-07 04:03 34.73190 138.91787 33013 ft 427 kts 111°
2026-05-07 04:03 34.72081 138.95088 33010 ft 419 kts 127°
2026-05-07 04:03 34.70361 138.97878 33007 ft 407 kts 142°
2026-05-07 04:03 34.68198 139.00000 33010 ft 395 kts 156°
2026-05-07 04:04 34.65747 139.01394 33009 ft 383 kts 170°
2026-05-07 04:04 34.63180 139.02034 33008 ft 373 kts 183°
2026-05-07 04:04 34.60621 139.01954 33009 ft 363 kts 195°
2026-05-07 04:04 34.58228 139.01219 33017 ft 356 kts 206°
2026-05-07 04:05 34.56033 138.99883 33014 ft 350 kts 217°
2026-05-07 04:05 34.54155 138.98042 33015 ft 347 kts 228°
2026-05-07 04:05 34.52645 138.95778 33013 ft 346 kts 237°
2026-05-07 04:06 34.49944 138.90947 33010 ft 345 kts 236°
2026-05-07 04:06 34.47228 138.86155 33011 ft 345 kts 236°
2026-05-07 04:07 34.44779 138.81179 33015 ft 344 kts 248°
2026-05-07 04:07 34.43952 138.75486 33015 ft 352 kts 269°
2026-05-07 04:07 34.44313 138.72532 33014 ft 358 kts 281°
2026-05-07 04:08 34.45217 138.69692 33011 ft 366 kts 292°
2026-05-07 04:08 34.46656 138.67101 33013 ft 376 kts 304°
2026-05-07 04:08 34.48597 138.64914 33009 ft 387 kts 317°
2026-05-07 04:08 34.50974 138.63293 33016 ft 399 kts 332°
2026-05-07 04:09 34.53681 138.62389 33018 ft 410 kts 346°
2026-05-07 04:09 34.56571 138.62326 33017 ft 422 kts
2026-05-07 04:09 34.59425 138.63169 33017 ft 433 kts 18°
2026-05-07 04:09 34.62083 138.64937 33005 ft 441 kts 34°
2026-05-07 04:10 34.64309 138.67533 33013 ft 446 kts 51°
2026-05-07 04:10 34.67845 138.73758 33010 ft 447 kts 56°
2026-05-07 04:11 34.71314 138.80023 32999 ft 447 kts 55°
2026-05-07 04:11 34.72804 138.83327 33020 ft 447 kts 71°
2026-05-07 04:11 34.73560 138.86964 33005 ft 443 kts 88°
2026-05-07 04:11 34.73517 138.90638 33008 ft 437 kts 104°
2026-05-07 04:12 34.72705 138.94159 33012 ft 430 kts 121°
2026-05-07 04:12 34.71224 138.97259 32994 ft 418 kts 136°
2026-05-07 04:12 34.69228 138.99748 33006 ft 404 kts 150°
2026-05-07 04:12 34.66887 139.01533 33000 ft 390 kts 164°
2026-05-07 04:13 34.64368 139.02581 33003 ft 378 kts 177°
2026-05-07 04:13 34.61801 139.02916 33007 ft 366 kts 189°
2026-05-07 04:13 34.59303 139.02582 33010 ft 356 kts 200°
2026-05-07 04:13 34.56982 139.01647 33010 ft 349 kts 211°
2026-05-07 04:14 34.54907 139.00186 33004 ft 342 kts 221°
2026-05-07 04:14 34.51725 138.96008 33006 ft 337 kts 237°
2026-05-07 04:15 34.49106 138.91333 33013 ft 336 kts 237°
2026-05-07 04:15 34.46460 138.86668 33010 ft 335 kts 237°
2026-05-07 04:16 34.44036 138.81864 33008 ft 334 kts 247°
2026-05-07 04:16 34.43025 138.76379 33008 ft 340 kts 266°
2026-05-07 04:17 34.43897 138.70689 33016 ft 352 kts 287°
2026-05-07 04:17 34.46724 138.65698 33015 ft 374 kts 309°
2026-05-07 04:17 34.48834 138.63775 33008 ft 386 kts 322°
2026-05-07 04:18 34.51328 138.62434 33013 ft 399 kts 335°
2026-05-07 04:18 34.56025 138.61856 33015 ft 422 kts 360°
2026-05-07 04:18 34.58931 138.62669 33013 ft 435 kts 15°
2026-05-07 04:19 34.61636 138.64391 33006 ft 446 kts 32°
2026-05-07 04:19 34.64566 138.67949 33018 ft 454 kts 54°
2026-05-07 04:19 34.65761 138.70045 33008 ft 455 kts 54°
2026-05-07 04:20 34.69297 138.76415 33013 ft 454 kts 54°
2026-05-07 04:20 34.72673 138.82920 33012 ft 455 kts 68°
2026-05-07 04:21 34.73643 138.90406 33003 ft 448 kts 102°
2026-05-07 04:21 34.72929 138.94042 33004 ft 437 kts 119°
2026-05-07 04:21 34.71553 138.97211 33000 ft 424 kts 134°
2026-05-07 04:21 34.69631 138.99843 33000 ft 409 kts 149°
2026-05-07 04:22 34.67344 139.01793 32997 ft 394 kts 162°
2026-05-07 04:22 34.64858 139.03023 33000 ft 379 kts 175°
2026-05-07 04:22 34.62303 139.03554 32995 ft 366 kts 187°
2026-05-07 04:22 34.59809 139.03431 32998 ft 354 kts 198°
2026-05-07 04:23 34.55318 139.01494 33009 ft 337 kts 217°
2026-05-07 04:23 34.51895 138.97785 33010 ft 328 kts 236°
2026-05-07 04:24 34.49330 138.93228 33009 ft 327 kts 237°
2026-05-07 04:24 34.46752 138.88677 33003 ft 327 kts 237°
2026-05-07 04:25 34.44210 138.84162 33004 ft 325 kts 241°
2026-05-07 04:25 34.42531 138.79092 33004 ft 328 kts 257°
2026-05-07 04:26 34.42453 138.73561 33009 ft 335 kts 275°
2026-05-07 04:26 34.44185 138.68193 33004 ft 354 kts 295°
2026-05-07 04:27 34.45737 138.65833 33009 ft 364 kts 306°
2026-05-07 04:27 34.47724 138.63846 33012 ft 377 kts 317°
2026-05-07 04:27 34.50106 138.62362 33009 ft 393 kts 330°
2026-05-07 04:27 34.52798 138.61527 33006 ft 409 kts 344°
2026-05-07 04:28 34.55692 138.61470 33009 ft 425 kts 358°
2026-05-07 04:28 34.58621 138.62290 33006 ft 440 kts 14°
2026-05-07 04:28 34.61374 138.64023 33006 ft 452 kts 31°
2026-05-07 04:28 34.63725 138.66604 33010 ft 461 kts 48°
2026-05-07 04:29 34.67424 138.73023 33006 ft 464 kts 54°
2026-05-07 04:29 34.71003 138.79473 33010 ft 462 kts 54°
2026-05-07 04:30 34.72652 138.82841 33003 ft 464 kts 67°
2026-05-07 04:30 34.73600 138.86578 33007 ft 462 kts 84°
2026-05-07 04:30 34.73745 138.90447 33007 ft 456 kts 101°
2026-05-07 04:30 34.73104 138.94174 33009 ft 446 kts 117°
2026-05-07 04:31 34.71780 138.97511 32996 ft 432 kts 133°
2026-05-07 04:31 34.69917 139.00277 32997 ft 414 kts 148°
2026-05-07 04:31 34.67693 139.02365 32996 ft 397 kts 161°
2026-05-07 04:31 34.65246 139.03764 32998 ft 381 kts 173°
2026-05-07 04:32 34.62720 139.04485 32996 ft 366 kts 185°
2026-05-07 04:32 34.60221 139.04573 32997 ft 353 kts 195°
2026-05-07 04:32 34.57840 139.04091 32999 ft 342 kts 205°
2026-05-07 04:32 34.55638 139.03105 33004 ft 333 kts 214°
2026-05-07 04:33 34.52003 138.99934 33006 ft 320 kts 231°
2026-05-07 04:33 34.49373 138.95625 33003 ft 317 kts 238°
2026-05-07 04:34 34.46883 138.91217 33001 ft 317 kts 238°
2026-05-07 04:34 34.44385 138.86816 33002 ft 317 kts 238°
2026-05-07 04:35 34.42168 138.82240 33005 ft 315 kts 248°
2026-05-07 04:35 34.41155 138.77074 33006 ft 319 kts 264°
2026-05-07 04:36 34.41684 138.71738 33001 ft 329 kts 280°
2026-05-07 04:36 34.43861 138.66708 33007 ft 349 kts 299°
2026-05-07 04:37 34.45570 138.64553 33004 ft 361 kts 309°
2026-05-07 04:37 34.47666 138.62784 33004 ft 376 kts 320°
2026-05-07 04:37 34.50121 138.61514 33006 ft 393 kts 333°
2026-05-07 04:37 34.52867 138.60880 33009 ft 411 kts 346°
2026-05-07 04:38 34.55780 138.61013 33005 ft 429 kts
2026-05-07 04:38 34.58711 138.62007 33004 ft 446 kts 15°
2026-05-07 04:38 34.61442 138.63892 33004 ft 460 kts 32°
2026-05-07 04:38 34.63766 138.66617 33005 ft 469 kts 50°
2026-05-07 04:39 34.67496 138.73184 33003 ft 472 kts 54°
2026-05-07 04:39 34.71147 138.79739 33003 ft 470 kts 53°
2026-05-07 04:40 34.72784 138.83183 33017 ft 473 kts 68°
2026-05-07 04:40 34.73711 138.87016 32999 ft 471 kts 85°
2026-05-07 04:40 34.73826 138.90962 33001 ft 464 kts 102°
2026-05-07 04:40 34.73147 138.94730 33003 ft 452 kts 118°
2026-05-07 04:41 34.71786 138.98101 32994 ft 437 kts 134°
2026-05-07 04:41 34.69900 139.00896 32996 ft 419 kts 148°
2026-05-07 04:41 34.67681 139.03007 32994 ft 400 kts 161°
2026-05-07 04:41 34.65240 139.04450 32994 ft 382 kts 174°
2026-05-07 04:42 34.62725 139.05232 32994 ft 366 kts 185°
2026-05-07 04:42 34.60236 139.05399 32993 ft 351 kts 195°
2026-05-07 04:42 34.57859 139.05016 32997 ft 339 kts 204°
2026-05-07 04:42 34.55648 139.04149 33000 ft 329 kts 213°
2026-05-07 04:43 34.51913 139.01236 33000 ft 314 kts 229°
2026-05-07 04:43 34.49222 138.97174 33003 ft 309 kts 239°
2026-05-07 04:44 34.46825 138.92914 33001 ft 308 kts 238°
2026-05-07 04:44 34.44394 138.88632 33003 ft 308 kts 238°
2026-05-07 04:45 34.42034 138.84317 33001 ft 305 kts 244°
2026-05-07 04:45 34.40524 138.79518 33000 ft 307 kts 256°
2026-05-07 04:46 34.40329 138.74351 32997 ft 313 kts 271°
2026-05-07 04:46 34.41608 138.69207 33001 ft 329 kts 288°
2026-05-07 04:47 34.44380 138.64703 33000 ft 349 kts 306°
2026-05-07 04:47 34.46341 138.62858 32999 ft 364 kts 316°
2026-05-07 04:47 34.48652 138.61445 33007 ft 382 kts 327°
2026-05-07 04:48 34.51276 138.60582 33004 ft 400 kts 339°
2026-05-07 04:48 34.54124 138.60401 33001 ft 421 kts 352°
2026-05-07 04:48 34.57076 138.61019 32996 ft 441 kts
2026-05-07 04:48 34.59949 138.62516 33003 ft 459 kts 23°
2026-05-07 04:49 34.62530 138.64894 33004 ft 473 kts 40°
2026-05-07 04:49 34.64618 138.68019 33006 ft 480 kts 53°
2026-05-07 04:49 34.68360 138.74738 33003 ft 479 kts 53°
2026-05-07 04:50 34.72057 138.81441 32996 ft 480 kts 59°
2026-05-07 04:50 34.73387 138.85160 32998 ft 482 kts 76°
2026-05-07 04:50 34.73937 138.89162 33008 ft 479 kts 94°
2026-05-07 04:51 34.73670 138.93142 32997 ft 466 kts 110°
2026-05-07 04:51 34.72651 138.96794 32990 ft 450 kts 127°
2026-05-07 04:51 34.71022 138.99946 32997 ft 433 kts 142°
2026-05-07 04:51 34.68952 139.02484 32995 ft 413 kts 155°
2026-05-07 04:52 34.66609 139.04345 32998 ft 393 kts 168°
2026-05-07 04:52 34.64129 139.05536 32996 ft 374 kts 179°
2026-05-07 04:52 34.61635 139.06097 32987 ft 357 kts 189°
2026-05-07 04:52 34.59207 139.06094 32996 ft 342 kts 199°
2026-05-07 04:53 34.56913 139.05593 32998 ft 329 kts 208°
2026-05-07 04:53 34.54799 139.04663 32996 ft 318 kts 216°
2026-05-07 04:53 34.51244 139.01769 33000 ft 304 kts 230°
2026-05-07 04:54 34.49827 138.99900 32995 ft 299 kts 237°
2026-05-07 04:54 34.48642 138.97838 32995 ft 297 kts 240°
2026-05-07 04:54 34.47482 138.95761 32997 ft 298 kts 239°
2026-05-07 04:54 34.46313 138.93695 32998 ft 297 kts 239°
2026-05-07 04:55 34.45141 138.91631 33003 ft 297 kts 239°
2026-05-07 04:55 34.43968 138.89568 32996 ft 297 kts 239°
2026-05-07 04:55 34.42798 138.87508 32996 ft 297 kts 239°
2026-05-07 04:55 34.41637 138.85437 32995 ft 296 kts 242°
2026-05-07 04:56 34.40687 138.83238 32996 ft 294 kts 247°
2026-05-07 04:56 34.39968 138.80955 32997 ft 294 kts 253°
2026-05-07 04:56 34.39522 138.78537 32993 ft 296 kts 259°
2026-05-07 04:56 34.39391 138.76042 32999 ft 299 kts 266°
2026-05-07 04:57 34.40121 138.71028 32992 ft 310 kts 281°
2026-05-07 04:57 34.42229 138.66310 32994 ft 330 kts 296°
2026-05-07 04:58 34.43812 138.64235 32993 ft 342 kts 305°
2026-05-07 04:58 34.45750 138.62454 32989 ft 358 kts 314°
2026-05-07 04:58 34.48029 138.61065 32997 ft 377 kts 325°
2026-05-07 04:58 34.50625 138.60187 33003 ft 397 kts 336°
2026-05-07 04:59 34.53422 138.59956 32997 ft 419 kts 349°
2026-05-07 04:59 34.56379 138.60486 32996 ft 442 kts
2026-05-07 04:59 34.59309 138.61884 32997 ft 463 kts 20°
2026-05-07 04:59 34.61988 138.64174 32997 ft 479 kts 37°
2026-05-07 05:00 34.64201 138.67275 32997 ft 490 kts 52°
2026-05-07 05:00 34.66124 138.70697 32998 ft 491 kts 53°
2026-05-07 05:00 34.69934 138.77564 32998 ft 490 kts 52°
2026-05-07 05:01 34.73311 138.84751 32991 ft 494 kts 73°
2026-05-07 05:01 34.74001 138.88761 32997 ft 490 kts 91°
2026-05-07 05:01 34.73887 138.92854 32988 ft 478 kts 108°
2026-05-07 05:02 34.73003 138.96700 32997 ft 466 kts 124°
2026-05-07 05:02 34.71489 139.00072 32987 ft 444 kts 139°
2026-05-07 05:02 34.69512 139.02831 32989 ft 422 kts 153°
2026-05-07 05:02 34.67233 139.04924 32989 ft 400 kts 165°
2026-05-07 05:03 34.64796 139.06355 32981 ft 379 kts 176°
2026-05-07 05:03 34.62314 139.07167 32990 ft 361 kts 186°
2026-05-07 05:03 34.59875 139.07420 32987 ft 343 kts 196°
2026-05-07 05:03 34.57548 139.07181 32986 ft 330 kts 204°
2026-05-07 05:04 34.55362 139.06510 32996 ft 319 kts 212°
2026-05-07 05:04 34.53353 139.05467 32995 ft 309 kts 219°
2026-05-07 05:04 34.49968 139.02477 32994 ft 296 kts 232°
2026-05-07 05:05 34.48618 139.00611 32998 ft 293 kts 238°
2026-05-07 05:05 34.47465 138.98575 32995 ft 292 kts 240°
2026-05-07 05:05 34.46712 138.97227 32988 ft 292 kts 240°
2026-05-07 05:05 34.45190 138.94536 32996 ft 292 kts 239°
2026-05-07 05:06 34.44035 138.92502 32994 ft 293 kts 239°
2026-05-07 05:06 34.42880 138.90469 32992 ft 293 kts 239°
2026-05-07 05:06 34.41722 138.88431 32989 ft 293 kts 239°
2026-05-07 05:06 34.40568 138.86396 32986 ft 293 kts 240°
2026-05-07 05:07 34.39896 138.84985 32998 ft 292 kts 245°
2026-05-07 05:07 34.39038 138.82754 32992 ft 292 kts 249°
2026-05-07 05:07 34.38412 138.80411 32993 ft 292 kts 255°
2026-05-07 05:07 34.38071 138.77982 32995 ft 294 kts 262°
2026-05-07 05:08 34.38032 138.75517 32994 ft 299 kts 268°
2026-05-07 05:08 34.38304 138.73000 32995 ft 304 kts 275°
2026-05-07 05:08 34.39818 138.68109 32997 ft 319 kts 289°
2026-05-07 05:09 34.41075 138.65837 32990 ft 331 kts 297°
2026-05-07 05:09 34.42679 138.63758 32990 ft 344 kts 305°
2026-05-07 05:09 34.44627 138.61964 32992 ft 359 kts 314°
2026-05-07 05:09 34.46898 138.60552 32995 ft 376 kts 324°
2026-05-07 05:10 34.49472 138.59621 32995 ft 395 kts 336°
2026-05-07 05:10 34.52243 138.59294 32990 ft 415 kts 348°
2026-05-07 05:10 34.55184 138.59675 32995 ft 435 kts
2026-05-07 05:10 34.58129 138.60862 32993 ft 455 kts 16°
2026-05-07 05:11 34.60881 138.62884 32994 ft 470 kts 32°
2026-05-07 05:11 34.63236 138.65687 32990 ft 481 kts 49°
2026-05-07 05:11 34.67053 138.72408 32991 ft 482 kts 53°
2026-05-07 05:12 34.70814 138.79146 32996 ft 481 kts 52°
2026-05-07 05:12 34.72575 138.82614 32994 ft 483 kts 64°
2026-05-07 05:12 34.73661 138.86470 33002 ft 483 kts 82°
2026-05-07 05:13 34.73943 138.90443 32990 ft 475 kts 99°
2026-05-07 05:13 34.73428 138.94335 33006 ft 460 kts 116°
2026-05-07 05:13 34.72217 138.97849 32989 ft 445 kts 132°
2026-05-07 05:13 34.70450 139.00834 32984 ft 425 kts 146°
2026-05-07 05:14 34.68307 139.03166 32987 ft 404 kts 159°
2026-05-07 05:14 34.65938 139.04828 32986 ft 385 kts 171°
2026-05-07 05:14 34.63465 139.05844 32984 ft 367 kts 182°
2026-05-07 05:14 34.60994 139.06258 32985 ft 351 kts 192°
2026-05-07 05:15 34.58605 139.06131 32988 ft 338 kts 201°
2026-05-07 05:15 34.56349 139.05525 32989 ft 326 kts 209°
2026-05-07 05:15 34.52426 139.03133 32992 ft 309 kts 224°
2026-05-07 05:16 34.49438 138.99513 32988 ft 302 kts 238°
2026-05-07 05:16 34.47085 138.95312 32987 ft 301 kts 239°
2026-05-07 05:17 34.44710 138.91124 32989 ft 302 kts 239°
2026-05-07 05:17 34.42329 138.86930 32989 ft 302 kts 239°
2026-05-07 05:18 34.40285 138.82495 32990 ft 302 kts 249°
2026-05-07 05:18 34.39297 138.77598 32989 ft 304 kts 262°
2026-05-07 05:19 34.39633 138.72430 32989 ft 314 kts 277°
2026-05-07 05:19 34.41389 138.67468 32987 ft 331 kts 292°
2026-05-07 05:20 34.42819 138.65215 32991 ft 344 kts 302°
2026-05-07 05:20 34.44622 138.63222 32992 ft 358 kts 311°
2026-05-07 05:20 34.46781 138.61597 32994 ft 373 kts 321°
2026-05-07 05:20 34.49259 138.60449 32987 ft 390 kts 333°
2026-05-07 05:21 34.51997 138.59895 32993 ft 409 kts 345°
2026-05-07 05:21 34.57793 138.60994 32991 ft 445 kts 14°
2026-05-07 05:21 34.60605 138.62820 32988 ft 460 kts 30°
2026-05-07 05:22 34.62991 138.65398 32991 ft 469 kts 46°
2026-05-07 05:22 34.66777 138.71914 32991 ft 473 kts 54°
2026-05-07 05:23 34.70462 138.78520 32997 ft 471 kts 53°
2026-05-07 05:23 34.73444 138.85571 32994 ft 472 kts 79°
2026-05-07 05:23 34.73833 138.89499 32985 ft 464 kts 97°
2026-05-07 05:24 34.73405 138.93327 32984 ft 450 kts 114°
2026-05-07 05:24 34.72284 138.96754 32986 ft 435 kts 130°
2026-05-07 05:24 34.70582 138.99708 32982 ft 418 kts 144°
2026-05-07 05:24 34.68469 139.02026 32984 ft 400 kts 158°
2026-05-07 05:25 34.66113 139.03661 32981 ft 381 kts 170°
2026-05-07 05:25 34.63653 139.04627 32981 ft 364 kts 181°
2026-05-07 05:25 34.61184 139.04973 32984 ft 350 kts 192°
2026-05-07 05:25 34.58808 139.04757 32983 ft 337 kts 201°
2026-05-07 05:26 34.56570 139.04032 32922 ft 330 kts 212°
2026-05-07 05:26 34.54630 139.02577 32692 ft 330 kts 229°
2026-05-07 05:26 34.53214 139.00405 32456 ft 339 kts 244°
2026-05-07 05:26 34.52406 138.97669 32202 ft 354 kts 258°